Location: Unspecified
(0.0000°N, 0.0000°E)
Time: 23:17:37
(UTC+00:00)

Vanguard 2 Rocket - All Passes

Search period start: 24 January 2017 00:00
Search period end: 03 February 2017 00:00
Orbit: 553 x 3329 km, 32.9° (Epoch: 24 January)

Date Brightness Start Highest point End Pass type
(mag) Time Alt. Az. Time Alt. Az. Time Alt. Az.
24 Jan - 00:40:52 10° N 00:46:25 15° NE 00:53:29 10° ENE visible
24 Jan - 02:50:29 10° NW 03:02:38 55° NE 03:21:19 10° ESE visible
24 Jan - 05:04:34 10° WNW 05:20:34 67° SW 05:41:01 10° SE visible
24 Jan - 07:24:54 10° W 07:41:11 31° SSW 07:56:54 10° SSE daylight
24 Jan - 09:54:53 10° SW 10:03:57 15° SSW 10:11:39 10° SSE daylight
24 Jan - 12:20:21 10° SSW 12:25:42 13° S 12:30:04 10° SSE daylight
24 Jan - 14:35:41 10° SSW 14:43:15 29° SSE 14:48:08 10° E daylight
24 Jan - 16:51:25 10° WSW 16:56:58 43° NW 17:00:56 10° NE daylight
25 Jan - 01:51:52 10° NNW 02:01:49 38° NE 02:17:19 10° E visible
25 Jan - 04:04:20 10° WNW 04:18:34 85° SW 04:39:12 10° SE visible
25 Jan - 06:21:51 10° W 06:38:18 40° SSW 06:56:19 10° SE daylight
25 Jan - 08:48:18 10° SW 09:00:46 19° SSW 09:11:40 10° SSE daylight
25 Jan - 11:17:17 10° SSW 11:23:46 13° S 11:29:09 10° SSE daylight
25 Jan - 13:34:53 10° SSW 13:42:57 23° SSE 13:48:24 10° ESE daylight
25 Jan - 15:50:32 10° SW 15:58:00 90° WNW 16:02:35 10° NE daylight
26 Jan - 00:53:55 10° N 01:01:24 24° NE 01:12:16 10° E visible
26 Jan - 03:04:49 10° NW 03:17:06 75° NE 03:36:42 10° ESE visible
26 Jan - 05:20:07 10° WNW 05:35:40 51° SSW 05:55:13 10° SE visible
26 Jan - 07:42:50 10° WSW 07:57:25 24° SSW 08:11:17 10° SSE daylight
26 Jan - 10:12:37 10° SSW 10:21:08 15° S 10:28:15 10° SSE daylight
26 Jan - 12:33:32 10° SSW 12:42:04 20° SSE 12:48:09 10° ESE daylight
26 Jan - 14:49:37 10° SW 14:58:36 54° SSE 15:03:50 10° ENE daylight
26 Jan - 17:07:31 10° W 17:11:30 19° NW 17:14:39 10° N daylight
26 Jan - 23:57:35 10° NNE 00:01:10 13° NE 00:05:28 10° ENE night (unlit)
27 Jan - 02:05:54 10° NW 02:16:16 54° NE 02:33:28 10° ESE visible
27 Jan - 04:19:25 10° WNW 04:33:27 64° SSW 04:53:36 10° SE visible
27 Jan - 06:38:53 10° WSW 06:54:11 30° SSW 07:10:30 10° SSE daylight
27 Jan - 09:06:58 10° SW 09:17:53 17° S 09:27:21 10° SSE daylight
27 Jan - 11:31:25 10° SSW 11:40:32 18° S 11:47:22 10° SE daylight
27 Jan - 13:48:30 10° SW 13:58:38 38° SSE 14:04:40 10° E daylight
27 Jan - 16:05:42 10° WSW 16:12:36 42° NW 16:17:03 10° NNE daylight
28 Jan - 01:07:34 10° NNW 01:15:58 36° NE 01:29:30 10° E visible
28 Jan - 03:19:31 10° WNW 03:31:45 81° SW 03:51:27 10° SE visible
28 Jan - 05:36:22 10° W 05:51:14 38° SSW 06:09:20 10° SE visible
28 Jan - 08:01:23 10° SW 08:14:17 20° SSW 08:26:19 10° SSE daylight
28 Jan - 10:28:21 10° SSW 10:38:14 17° S 10:46:04 10° SE daylight
28 Jan - 12:47:04 10° SSW 12:58:04 30° SSE 13:05:01 10° E daylight
28 Jan - 15:04:10 10° WSW 15:13:30 81° NW 15:18:49 10° NE daylight
29 Jan - 00:09:58 10° N 00:16:01 21° NE 00:24:39 10° E visible
29 Jan - 02:20:17 10° NW 02:30:43 77° NE 02:48:47 10° ESE visible
29 Jan - 04:35:03 10° W 04:48:42 47° SSW 05:07:45 10° SE visible
29 Jan - 06:56:44 10° WSW 07:10:39 24° SSW 07:25:03 10° SSE daylight
29 Jan - 09:24:17 10° SW 09:35:11 17° S 09:44:22 10° SE daylight
29 Jan - 11:45:13 10° SSW 11:56:53 25° SSE 12:04:47 10° ESE daylight
29 Jan - 14:02:36 10° SW 14:13:54 65° SSE 14:20:08 10° ENE daylight
29 Jan - 16:21:52 10° W 16:27:02 21° NW 16:30:47 10° N daylight
30 Jan - 01:21:36 10° NW 01:30:20 54° NE 01:45:35 10° ESE visible
30 Jan - 03:34:40 10° WNW 03:46:45 60° SSW 04:05:47 10° SE visible
30 Jan - 05:53:24 10° WSW 06:07:19 29° SSW 06:23:34 10° SSE daylight
30 Jan - 08:19:36 10° SW 08:31:35 18° S 08:42:27 10° SSE daylight
30 Jan - 10:42:52 10° SSW 10:54:59 22° SSE 11:03:52 10° ESE daylight
30 Jan - 13:00:54 10° SW 13:13:41 46° SSE 13:21:00 10° E daylight
30 Jan - 15:19:25 10° WSW 15:28:02 43° NW 15:33:13 10° NNE daylight
31 Jan - 00:23:29 10° NNW 00:30:29 33° NE 00:41:52 10° E visible
31 Jan - 02:35:02 10° WNW 02:45:25 77° SW 03:03:28 10° SE visible
31 Jan - 04:51:22 10° W 05:04:27 35° SSW 05:21:50 10° SE visible
31 Jan - 07:15:00 10° SW 07:27:42 20° S 07:40:23 10° SSE daylight
31 Jan - 09:39:58 10° SSW 09:52:19 20° S 10:02:11 10° SE daylight
31 Jan - 11:59:00 10° SW 12:12:49 36° SSE 12:21:20 10° E daylight
31 Jan - 14:17:15 10° WSW 14:28:43 76° NW 14:35:00 10° NE daylight
31 Jan - 16:41:12 10° NW 16:41:32 10° NW 16:41:51 10° NW daylight
31 Jan - 23:26:14 10° N 23:30:56 18° NE 23:37:23 10° E night (unlit)
01 Feb - 01:36:00 10° NW 01:44:48 79° NE 02:00:50 10° ESE visible
01 Feb - 03:50:23 10° W 04:02:09 43° SSW 04:19:52 10° SE visible
01 Feb - 06:11:11 10° WSW 06:23:58 23° SSW 06:38:15 10° SSE daylight
01 Feb - 08:36:33 10° SW 08:48:58 19° S 08:59:49 10° SE daylight
01 Feb - 10:56:54 10° SW 11:11:17 30° SSE 11:20:59 10° ESE daylight
01 Feb - 13:15:07 10° SW 13:28:52 73° SSE 13:36:18 10° ENE daylight
01 Feb - 15:35:38 10° W 15:42:22 24° NW 15:47:00 10° N daylight
02 Feb - 00:37:30 10° NW 00:44:49 53° NE 00:57:53 10° ESE visible
02 Feb - 02:50:16 10° WNW 03:00:31 54° SSW 03:17:44 10° SE visible
02 Feb - 05:08:26 10° WSW 05:20:41 26° SSW 05:36:05 10° SSE visible
02 Feb - 07:32:50 10° SW 07:45:07 19° S 07:56:56 10° SE daylight
02 Feb - 09:54:34 10° SSW 10:09:02 25° SSE 10:19:50 10° ESE daylight
02 Feb - 12:12:59 10° SW 12:28:21 54° SSE 12:37:06 10° ENE daylight
02 Feb - 14:32:34 10° WSW 14:43:11 45° NW 14:49:20 10° NNE daylight
02 Feb - 23:39:33 10° NNW 23:45:21 31° NE 23:54:36 10° E night (unlit)
